Saint Francis River (Missouri), Wappapello (07039500)

StateMissouriLatestGood (848 cfs)
RiverSaint Francis RiverRatingObservedEstimated
Updated2020-08-14 5:00 (46 minutes ago)Flood - The river is flooding. Obstacles can be treacherous or deadly. The river should be avoided at this stage for casual trips and definitely for the inexperienced. Trips should be attempted only with protective gear and equipment.Flood(none)7958
Discharge848 cfs (median: 230 cfs)High - The river is high and potentially dangerous, especially for the young and / or inexperienced. Normal stream obstacles are sometimes difficult to navigate. Extended distances can be attempted, but canoe travel may not be advisable.High(none)2240
Height8.62 feetGood - Conditions are ideal for a canoe or kayak. Boats typically will drag on fewer than one-quarter of riffles, if at all, and portages are unnecessary or rare. Normal float lengths can be attempted without a problem.Good(none)676
TrendRising (falling over 24 hours)Low - River is low but can still be floated. Some riffles are okay but most come with significant dragging and might need a portage. Float lengths should be reduced to accommodate low flow, dragging, and portages.Low(none)255
USGSExternal icon USGS Site (External icon Google Maps)Poor - River is too low to float comfortably. Most or all riffles will drag or must be portaged and some obstacles (such as slick shelf rock) cause undue problems. Avoid the river at this stage for casual paddling trips.Poor(none)40

Trending Data

Plot Image

Trips for Saint Francis River (Missouri), Wappapello (07039500)

DateStartEndDistanceConditionDischargeHeightFishingDetails

A total of 0 rows are displayed.

Condition Descriptions

Fishing Conditions

Fish Species

Notes

Classic Trip List

The classic River Trips application is still available for use. It is updated with the new system using a data retrofit. It is no longer maintained. The original River Trips application is no longer updated (as of 1 Dec 2016) but can be checked for errors or for the condition of the data before it was converted to the new system.

Gauge Data Table

ObservationHeightDischargeMaximum
Discharge
Minimum
Discharge
Mean
Discharge
P05P10P20P25P50
(Median)
P75P80P90P95
2020-08-14 05:00 8.62 848 3990 (1945) 30 (1947) 452 37 40 76 81 230 535 658 1130 1800
2020-08-14 04:00 8.61 846 3990 (1945) 30 (1947) 452 37 40 76 81 230 535 658 1130 1800
2020-08-14 03:00 8.61 846 3990 (1945) 30 (1947) 452 37 40 76 81 230 535 658 1130 1800
2020-08-14 02:00 8.62 848 3990 (1945) 30 (1947) 452 37 40 76 81 230 535 658 1130 1800
2020-08-14 01:00 8.61 846 3990 (1945) 30 (1947) 452 37 40 76 81 230 535 658 1130 1800
2020-08-14 00:00 8.61 846 3990 (1945) 30 (1947) 452 37 40 76 81 230 535 658 1130 1800
2020-08-13 23:00 8.61 846 4020 (1945) 30 (1947) 470 37 40 75 80 218 461 582 1210 2540
2020-08-13 22:00 8.62 848 4020 (1945) 30 (1947) 470 37 40 75 80 218 461 582 1210 2540
2020-08-13 21:00 8.61 846 4020 (1945) 30 (1947) 470 37 40 75 80 218 461 582 1210 2540
2020-08-13 20:00 8.61 846 4020 (1945) 30 (1947) 470 37 40 75 80 218 461 582 1210 2540
2020-08-13 19:00 8.62 848 4020 (1945) 30 (1947) 470 37 40 75 80 218 461 582 1210 2540
2020-08-13 18:00 8.61 846 4020 (1945) 30 (1947) 470 37 40 75 80 218 461 582 1210 2540
2020-08-13 17:00 8.61 846 4020 (1945) 30 (1947) 470 37 40 75 80 218 461 582 1210 2540
2020-08-13 16:00 8.63 851 4020 (1945) 30 (1947) 470 37 40 75 80 218 461 582 1210 2540
2020-08-13 15:00 8.63 851 4020 (1945) 30 (1947) 470 37 40 75 80 218 461 582 1210 2540
2020-08-13 14:00 8.63 851 4020 (1945) 30 (1947) 470 37 40 75 80 218 461 582 1210 2540
2020-08-13 13:00 8.64 853 4020 (1945) 30 (1947) 470 37 40 75 80 218 461 582 1210 2540
2020-08-13 12:00 8.66 857 4020 (1945) 30 (1947) 470 37 40 75 80 218 461 582 1210 2540
2020-08-13 11:00 8.66 857 4020 (1945) 30 (1947) 470 37 40 75 80 218 461 582 1210 2540
2020-08-13 10:00 8.67 859 4020 (1945) 30 (1947) 470 37 40 75 80 218 461 582 1210 2540
2020-08-13 09:00 8.68 861 4020 (1945) 30 (1947) 470 37 40 75 80 218 461 582 1210 2540
2020-08-13 08:00 8.69 863 4020 (1945) 30 (1947) 470 37 40 75 80 218 461 582 1210 2540
2020-08-13 07:00 8.69 863 4020 (1945) 30 (1947) 470 37 40 75 80 218 461 582 1210 2540
2020-08-13 06:00 8.70 865 4020 (1945) 30 (1947) 470 37 40 75 80 218 461 582 1210 2540
2020-08-13 05:00 8.71 868 4020 (1945) 30 (1947) 470 37 40 75 80 218 461 582 1210 2540
2020-08-13 04:00 8.72 870 4020 (1945) 30 (1947) 470 37 40 75 80 218 461 582 1210 2540
2020-08-13 03:00 8.72 870 4020 (1945) 30 (1947) 470 37 40 75 80 218 461 582 1210 2540
2020-08-13 02:00 8.73 872 4020 (1945) 30 (1947) 470 37 40 75 80 218 461 582 1210 2540
2020-08-13 01:00 8.72 870 4020 (1945) 30 (1947) 470 37 40 75 80 218 461 582 1210 2540
2020-08-13 00:00 8.73 872 4020 (1945) 30 (1947) 470 37 40 75 80 218 461 582 1210 2540
2020-08-12 23:00 8.74 874 4100 (1945) 0 (1982) 483 30 40 75 87 199 430 533 1290 3000
2020-08-12 22:00 8.76 878 4100 (1945) 0 (1982) 483 30 40 75 87 199 430 533 1290 3000
2020-08-12 21:00 8.78 883 4100 (1945) 0 (1982) 483 30 40 75 87 199 430 533 1290 3000
2020-08-12 20:00 8.81 889 4100 (1945) 0 (1982) 483 30 40 75 87 199 430 533 1290 3000
2020-08-12 19:00 8.83 893 4100 (1945) 0 (1982) 483 30 40 75 87 199 430 533 1290 3000
2020-08-12 18:00 8.84 896 4100 (1945) 0 (1982) 483 30 40 75 87 199 430 533 1290 3000
2020-08-12 17:00 8.87 902 4100 (1945) 0 (1982) 483 30 40 75 87 199 430 533 1290 3000
2020-08-12 16:00 8.92 913 4100 (1945) 0 (1982) 483 30 40 75 87 199 430 533 1290 3000
2020-08-12 15:00 8.99 928 4100 (1945) 0 (1982) 483 30 40 75 87 199 430 533 1290 3000
2020-08-12 14:00 9.09 950 4100 (1945) 0 (1982) 483 30 40 75 87 199 430 533 1290 3000
2020-08-12 13:00 9.17 968 4100 (1945) 0 (1982) 483 30 40 75 87 199 430 533 1290 3000
2020-08-12 12:00 9.17 968 4100 (1945) 0 (1982) 483 30 40 75 87 199 430 533 1290 3000
2020-08-12 11:00 9.18 970 4100 (1945) 0 (1982) 483 30 40 75 87 199 430 533 1290 3000
2020-08-12 10:00 9.20 975 4100 (1945) 0 (1982) 483 30 40 75 87 199 430 533 1290 3000
2020-08-12 09:00 9.20 975 4100 (1945) 0 (1982) 483 30 40 75 87 199 430 533 1290 3000
2020-08-12 08:00 9.21 977 4100 (1945) 0 (1982) 483 30 40 75 87 199 430 533 1290 3000
2020-08-12 07:00 9.22 979 4100 (1945) 0 (1982) 483 30 40 75 87 199 430 533 1290 3000
2020-08-12 06:00 9.22 979 4100 (1945) 0 (1982) 483 30 40 75 87 199 430 533 1290 3000
2020-08-12 05:00 9.23 982 4100 (1945) 0 (1982) 483 30 40 75 87 199 430 533 1290 3000
2020-08-12 04:00 9.25 986 4100 (1945) 0 (1982) 483 30 40 75 87 199 430 533 1290 3000
2020-08-12 03:00 9.26 988 4100 (1945) 0 (1982) 483 30 40 75 87 199 430 533 1290 3000
2020-08-12 02:00 9.28 993 4100 (1945) 0 (1982) 483 30 40 75 87 199 430 533 1290 3000
2020-08-12 01:00 9.29 995 4100 (1945) 0 (1982) 483 30 40 75 87 199 430 533 1290 3000
2020-08-12 00:00 9.31 1000 4100 (1945) 0 (1982) 483 30 40 75 87 199 430 533 1290 3000
2020-08-11 23:00 9.32 1000 4140 (1945) 0 (1978) 490 36 40 72 80 220 367 620 1270 2940
2020-08-11 22:00 9.35 1010 4140 (1945) 0 (1978) 490 36 40 72 80 220 367 620 1270 2940
2020-08-11 21:00 9.38 1020 4140 (1945) 0 (1978) 490 36 40 72 80 220 367 620 1270 2940
2020-08-11 20:00 9.41 1020 4140 (1945) 0 (1978) 490 36 40 72 80 220 367 620 1270 2940
2020-08-11 19:00 9.44 1030 4140 (1945) 0 (1978) 490 36 40 72 80 220 367 620 1270 2940
2020-08-11 18:00 9.48 1040 4140 (1945) 0 (1978) 490 36 40 72 80 220 367 620 1270 2940
2020-08-11 17:00 9.51 1050 4140 (1945) 0 (1978) 490 36 40 72 80 220 367 620 1270 2940
2020-08-11 16:00 9.54 1050 4140 (1945) 0 (1978) 490 36 40 72 80 220 367 620 1270 2940
2020-08-11 15:00 9.63 1070 4140 (1945) 0 (1978) 490 36 40 72 80 220 367 620 1270 2940
2020-08-11 14:00 9.69 1090 4140 (1945) 0 (1978) 490 36 40 72 80 220 367 620 1270 2940
2020-08-11 13:00 9.76 1100 4140 (1945) 0 (1978) 490 36 40 72 80 220 367 620 1270 2940
2020-08-11 12:00 9.85 1120 4140 (1945) 0 (1978) 490 36 40 72 80 220 367 620 1270 2940
2020-08-11 11:00 9.97 1150 4140 (1945) 0 (1978) 490 36 40 72 80 220 367 620 1270 2940
2020-08-11 10:00 10.13 1190 4140 (1945) 0 (1978) 490 36 40 72 80 220 367 620 1270 2940
2020-08-11 09:00 10.32 1240 4140 (1945) 0 (1978) 490 36 40 72 80 220 367 620 1270 2940
2020-08-11 08:00 10.34 1240 4140 (1945) 0 (1978) 490 36 40 72 80 220 367 620 1270 2940
2020-08-11 07:00 10.35 1240 4140 (1945) 0 (1978) 490 36 40 72 80 220 367 620 1270 2940
2020-08-11 06:00 10.37 1250 4140 (1945) 0 (1978) 490 36 40 72 80 220 367 620 1270 2940
2020-08-11 05:00 10.38 1250 4140 (1945) 0 (1978) 490 36 40 72 80 220 367 620 1270 2940
2020-08-11 04:00 10.41 1260 4140 (1945) 0 (1978) 490 36 40 72 80 220 367 620 1270 2940
2020-08-11 03:00 10.42 1260 4140 (1945) 0 (1978) 490 36 40 72 80 220 367 620 1270 2940
2020-08-11 02:00 10.45 1270 4140 (1945) 0 (1978) 490 36 40 72 80 220 367 620 1270 2940
2020-08-11 01:00 10.47 1270 4140 (1945) 0 (1978) 490 36 40 72 80 220 367 620 1270 2940
2020-08-11 00:00 10.49 1280 4140 (1945) 0 (1978) 490 36 40 72 80 220 367 620 1270 2940
2020-08-10 23:00 10.52 1290 4220 (1945) 0 (1978) 462 34 40 73 82 212 390 582 1090 2480
2020-08-10 22:00 10.54 1290 4220 (1945) 0 (1978) 462 34 40 73 82 212 390 582 1090 2480
2020-08-10 21:00 10.52 1290 4220 (1945) 0 (1978) 462 34 40 73 82 212 390 582 1090 2480
2020-08-10 20:00 10.57 1300 4220 (1945) 0 (1978) 462 34 40 73 82 212 390 582 1090 2480
2020-08-10 19:00 10.62 1310 4220 (1945) 0 (1978) 462 34 40 73 82 212 390 582 1090 2480
2020-08-10 18:00 10.67 1320 4220 (1945) 0 (1978) 462 34 40 73 82 212 390 582 1090 2480
2020-08-10 17:00 10.74 1340 4220 (1945) 0 (1978) 462 34 40 73 82 212 390 582 1090 2480
2020-08-10 16:00 10.83 1360 4220 (1945) 0 (1978) 462 34 40 73 82 212 390 582 1090 2480
2020-08-10 15:00 10.92 1390 4220 (1945) 0 (1978) 462 34 40 73 82 212 390 582 1090 2480
2020-08-10 14:00 11.05 1420 4220 (1945) 0 (1978) 462 34 40 73 82 212 390 582 1090 2480
2020-08-10 13:00 11.21 1460 4220 (1945) 0 (1978) 462 34 40 73 82 212 390 582 1090 2480
2020-08-10 12:00 11.33 1490 4220 (1945) 0 (1978) 462 34 40 73 82 212 390 582 1090 2480
2020-08-10 11:00 11.45 1520 4220 (1945) 0 (1978) 462 34 40 73 82 212 390 582 1090 2480
2020-08-10 10:00 11.65 1580 4220 (1945) 0 (1978) 462 34 40 73 82 212 390 582 1090 2480
2020-08-10 09:00 11.74 1600 4220 (1945) 0 (1978) 462 34 40 73 82 212 390 582 1090 2480
2020-08-10 08:00 11.75 1600 4220 (1945) 0 (1978) 462 34 40 73 82 212 390 582 1090 2480
2020-08-10 07:00 11.75 1600 4220 (1945) 0 (1978) 462 34 40 73 82 212 390 582 1090 2480
2020-08-10 06:00 11.75 1600 4220 (1945) 0 (1978) 462 34 40 73 82 212 390 582 1090 2480
2020-08-10 05:00 11.77 1610 4220 (1945) 0 (1978) 462 34 40 73 82 212 390 582 1090 2480
2020-08-10 04:00 11.76 1610 4220 (1945) 0 (1978) 462 34 40 73 82 212 390 582 1090 2480
2020-08-10 03:00 11.77 1610 4220 (1945) 0 (1978) 462 34 40 73 82 212 390 582 1090 2480
2020-08-10 02:00 11.76 1610 4220 (1945) 0 (1978) 462 34 40 73 82 212 390 582 1090 2480
2020-08-10 01:00 11.77 1610 4220 (1945) 0 (1978) 462 34 40 73 82 212 390 582 1090 2480
2020-08-10 00:00 11.76 1610 4220 (1945) 0 (1978) 462 34 40 73 82 212 390 582 1090 2480
2020-08-09 23:00 11.78 1610 4300 (1945) 0 (1978) 439 34 40 44 77 175 375 521 1400 2030
2020-08-09 22:00 11.79 1620 4300 (1945) 0 (1978) 439 34 40 44 77 175 375 521 1400 2030
2020-08-09 21:00 11.78 1610 4300 (1945) 0 (1978) 439 34 40 44 77 175 375 521 1400 2030
2020-08-09 20:00 11.78 1610 4300 (1945) 0 (1978) 439 34 40 44 77 175 375 521 1400 2030
2020-08-09 19:00 11.78 1610 4300 (1945) 0 (1978) 439 34 40 44 77 175 375 521 1400 2030
2020-08-09 18:00 11.78 1610 4300 (1945) 0 (1978) 439 34 40 44 77 175 375 521 1400 2030
2020-08-09 17:00 11.77 1610 4300 (1945) 0 (1978) 439 34 40 44 77 175 375 521 1400 2030
2020-08-09 16:00 11.78 1610 4300 (1945) 0 (1978) 439 34 40 44 77 175 375 521 1400 2030
2020-08-09 15:00 11.79 1620 4300 (1945) 0 (1978) 439 34 40 44 77 175 375 521 1400 2030
2020-08-09 14:00 11.81 1620 4300 (1945) 0 (1978) 439 34 40 44 77 175 375 521 1400 2030
2020-08-09 13:00 11.80 1620 4300 (1945) 0 (1978) 439 34 40 44 77 175 375 521 1400 2030
2020-08-09 12:00 11.81 1620 4300 (1945) 0 (1978) 439 34 40 44 77 175 375 521 1400 2030
2020-08-09 11:00 11.82 1620 4300 (1945) 0 (1978) 439 34 40 44 77 175 375 521 1400 2030
2020-08-09 10:00 11.84 1630 4300 (1945) 0 (1978) 439 34 40 44 77 175 375 521 1400 2030
2020-08-09 09:00 11.84 1630 4300 (1945) 0 (1978) 439 34 40 44 77 175 375 521 1400 2030
2020-08-09 08:00 11.86 1630 4300 (1945) 0 (1978) 439 34 40 44 77 175 375 521 1400 2030
2020-08-09 07:00 11.84 1630 4300 (1945) 0 (1978) 439 34 40 44 77 175 375 521 1400 2030
2020-08-09 06:00 11.85 1630 4300 (1945) 0 (1978) 439 34 40 44 77 175 375 521 1400 2030
2020-08-09 05:00 11.86 1630 4300 (1945) 0 (1978) 439 34 40 44 77 175 375 521 1400 2030
2020-08-09 04:00 11.87 1640 4300 (1945) 0 (1978) 439 34 40 44 77 175 375 521 1400 2030
2020-08-09 03:00 11.88 1640 4300 (1945) 0 (1978) 439 34 40 44 77 175 375 521 1400 2030
2020-08-09 02:00 11.89 1640 4300 (1945) 0 (1978) 439 34 40 44 77 175 375 521 1400 2030
2020-08-09 01:00 11.90 1650 4300 (1945) 0 (1978) 439 34 40 44 77 175 375 521 1400 2030
2020-08-09 00:00 11.93 1650 4300 (1945) 0 (1978) 439 34 40 44 77 175 375 521 1400 2030
2020-08-08 23:00 11.95 1660 4380 (1945) 0 (1978) 415 34 40 40 72 192 367 526 1120 1930
2020-08-08 22:00 11.97 1660 4380 (1945) 0 (1978) 415 34 40 40 72 192 367 526 1120 1930
2020-08-08 21:00 11.98 1670 4380 (1945) 0 (1978) 415 34 40 40 72 192 367 526 1120 1930
2020-08-08 20:00 12.01 1680 4380 (1945) 0 (1978) 415 34 40 40 72 192 367 526 1120 1930
2020-08-08 19:00 12.03 1680 4380 (1945) 0 (1978) 415 34 40 40 72 192 367 526 1120 1930
2020-08-08 18:00 12.07 1690 4380 (1945) 0 (1978) 415 34 40 40 72 192 367 526 1120 1930
2020-08-08 17:00 12.11 1700 4380 (1945) 0 (1978) 415 34 40 40 72 192 367 526 1120 1930
2020-08-08 16:00 12.14 1710 4380 (1945) 0 (1978) 415 34 40 40 72 192 367 526 1120 1930
2020-08-08 15:00 12.19 1720 4380 (1945) 0 (1978) 415 34 40 40 72 192 367 526 1120 1930
2020-08-08 14:00 12.26 1740 4380 (1945) 0 (1978) 415 34 40 40 72 192 367 526 1120 1930
2020-08-08 13:00 12.32 1760 4380 (1945) 0 (1978) 415 34 40 40 72 192 367 526 1120 1930
2020-08-08 12:00 12.41 1790 4380 (1945) 0 (1978) 415 34 40 40 72 192 367 526 1120 1930
2020-08-08 11:00 12.53 1820 4380 (1945) 0 (1978) 415 34 40 40 72 192 367 526 1120 1930
2020-08-08 10:00 12.69 1870 4380 (1945) 0 (1978) 415 34 40 40 72 192 367 526 1120 1930
2020-08-08 09:00 12.83 1910 4380 (1945) 0 (1978) 415 34 40 40 72 192 367 526 1120 1930
2020-08-08 08:00 12.82 1900 4380 (1945) 0 (1978) 415 34 40 40 72 192 367 526 1120 1930
2020-08-08 07:00 12.82 1900 4380 (1945) 0 (1978) 415 34 40 40 72 192 367 526 1120 1930
2020-08-08 06:00 12.83 1910 4380 (1945) 0 (1978) 415 34 40 40 72 192 367 526 1120 1930
2020-08-08 05:00 12.81 1900 4380 (1945) 0 (1978) 415 34 40 40 72 192 367 526 1120 1930
2020-08-08 04:00 12.82 1900 4380 (1945) 0 (1978) 415 34 40 40 72 192 367 526 1120 1930
2020-08-08 03:00 12.81 1900 4380 (1945) 0 (1978) 415 34 40 40 72 192 367 526 1120 1930
2020-08-08 02:00 12.80 1900 4380 (1945) 0 (1978) 415 34 40 40 72 192 367 526 1120 1930
2020-08-08 01:00 12.78 1890 4380 (1945) 0 (1978) 415 34 40 40 72 192 367 526 1120 1930
2020-08-08 00:00 12.78 1890 4380 (1945) 0 (1978) 415 34 40 40 72 192 367 526 1120 1930
2020-08-07 23:00 12.76 1890 4420 (1945) 19 (1978) 398 34 40 45 72 186 340 478 1040 1800
2020-08-07 22:00 12.75 1880 4420 (1945) 19 (1978) 398 34 40 45 72 186 340 478 1040 1800
2020-08-07 21:00 12.75 1880 4420 (1945) 19 (1978) 398 34 40 45 72 186 340 478 1040 1800
2020-08-07 20:00 12.71 1870 4420 (1945) 19 (1978) 398 34 40 45 72 186 340 478 1040 1800
2020-08-07 19:00 12.69 1870 4420 (1945) 19 (1978) 398 34 40 45 72 186 340 478 1040 1800
2020-08-07 18:00 12.66 1860 4420 (1945) 19 (1978) 398 34 40 45 72 186 340 478 1040 1800
2020-08-07 17:00 12.63 1850 4420 (1945) 19 (1978) 398 34 40 45 72 186 340 478 1040 1800
2020-08-07 16:00 12.59 1840 4420 (1945) 19 (1978) 398 34 40 45 72 186 340 478 1040 1800
2020-08-07 15:00 12.57 1830 4420 (1945) 19 (1978) 398 34 40 45 72 186 340 478 1040 1800
2020-08-07 14:00 12.52 1820 4420 (1945) 19 (1978) 398 34 40 45 72 186 340 478 1040 1800
2020-08-07 13:00 12.46 1800 4420 (1945) 19 (1978) 398 34 40 45 72 186 340 478 1040 1800
2020-08-07 12:00 12.39 1780 4420 (1945) 19 (1978) 398 34 40 45 72 186 340 478 1040 1800
2020-08-07 11:00 12.30 1760 4420 (1945) 19 (1978) 398 34 40 45 72 186 340 478 1040 1800
2020-08-07 10:00 12.16 1720 4420 (1945) 19 (1978) 398 34 40 45 72 186 340 478 1040 1800
2020-08-07 09:00 12.04 1680 4420 (1945) 19 (1978) 398 34 40 45 72 186 340 478 1040 1800
2020-08-07 08:00 12.04 1680 4420 (1945) 19 (1978) 398 34 40 45 72 186 340 478 1040 1800
2020-08-07 07:00 12.05 1690 4420 (1945) 19 (1978) 398 34 40 45 72 186 340 478 1040 1800
2020-08-07 06:00 12.02 1680 4420 (1945) 19 (1978) 398 34 40 45 72 186 340 478 1040 1800
2020-08-07 05:00 12.02 1680 4420 (1945) 19 (1978) 398 34 40 45 72 186 340 478 1040 1800
2020-08-07 04:00 12.02 1680 4420 (1945) 19 (1978) 398 34 40 45 72 186 340 478 1040 1800
2020-08-07 03:00 12.01 1680 4420 (1945) 19 (1978) 398 34 40 45 72 186 340 478 1040 1800
2020-08-07 02:00 12.00 1670 4420 (1945) 19 (1978) 398 34 40 45 72 186 340 478 1040 1800
2020-08-07 01:00 11.99 1670 4420 (1945) 19 (1978) 398 34 40 45 72 186 340 478 1040 1800
2020-08-07 00:00 11.97 1660 4420 (1945) 19 (1978) 398 34 40 45 72 186 340 478 1040 1800
2020-08-06 23:00 11.93 1650 4510 (1945) 30 (1947) 400 37 40 40 69 186 360 565 992 1830
2020-08-06 22:00 11.92 1650 4510 (1945) 30 (1947) 400 37 40 40 69 186 360 565 992 1830
2020-08-06 21:00 11.91 1650 4510 (1945) 30 (1947) 400 37 40 40 69 186 360 565 992 1830
2020-08-06 20:00 11.86 1630 4510 (1945) 30 (1947) 400 37 40 40 69 186 360 565 992 1830
2020-08-06 19:00 11.84 1630 4510 (1945) 30 (1947) 400 37 40 40 69 186 360 565 992 1830
2020-08-06 18:00 11.81 1620 4510 (1945) 30 (1947) 400 37 40 40 69 186 360 565 992 1830
2020-08-06 17:00 11.75 1600 4510 (1945) 30 (1947) 400 37 40 40 69 186 360 565 992 1830
2020-08-06 16:00 11.71 1590 4510 (1945) 30 (1947) 400 37 40 40 69 186 360 565 992 1830
2020-08-06 15:00 11.66 1580 4510 (1945) 30 (1947) 400 37 40 40 69 186 360 565 992 1830
2020-08-06 14:00 11.59 1560 4510 (1945) 30 (1947) 400 37 40 40 69 186 360 565 992 1830
2020-08-06 13:00 11.52 1540 4510 (1945) 30 (1947) 400 37 40 40 69 186 360 565 992 1830
2020-08-06 12:00 11.42 1520 4510 (1945) 30 (1947) 400 37 40 40 69 186 360 565 992 1830
2020-08-06 11:00 11.30 1490 4510 (1945) 30 (1947) 400 37 40 40 69 186 360 565 992 1830
2020-08-06 10:00 11.14 1440 4510 (1945) 30 (1947) 400 37 40 40 69 186 360 565 992 1830
2020-08-06 09:00 10.88 1380 4510 (1945) 30 (1947) 400 37 40 40 69 186 360 565 992 1830
2020-08-06 08:00 10.71 1330 4510 (1945) 30 (1947) 400 37 40 40 69 186 360 565 992 1830
2020-08-06 07:00 10.70 1330 4510 (1945) 30 (1947) 400 37 40 40 69 186 360 565 992 1830
2020-08-06 06:00 10.69 1330 4510 (1945) 30 (1947) 400 37 40 40 69 186 360 565 992 1830
2020-08-06 05:00 10.67 1320 4510 (1945) 30 (1947) 400 37 40 40 69 186 360 565 992 1830
2020-08-06 04:00 10.65 1320 4510 (1945) 30 (1947) 400 37 40 40 69 186 360 565 992 1830
2020-08-06 03:00 10.63 1310 4510 (1945) 30 (1947) 400 37 40 40 69 186 360 565 992 1830
2020-08-06 02:00 10.60 1310 4510 (1945) 30 (1947) 400 37 40 40 69 186 360 565 992 1830
2020-08-06 01:00 10.57 1300 4510 (1945) 30 (1947) 400 37 40 40 69 186 360 565 992 1830
2020-08-06 00:00 10.54 1290 4510 (1945) 30 (1947) 400 37 40 40 69 186 360 565 992 1830
2020-08-05 23:00 10.49 1280 4550 (1945) 24 (1982) 426 39 40 61 72 200 416 468 999 2050
2020-08-05 22:00 10.45 1270 4550 (1945) 24 (1982) 426 39 40 61 72 200 416 468 999 2050
2020-08-05 21:00 10.40 1260 4550 (1945) 24 (1982) 426 39 40 61 72 200 416 468 999 2050
2020-08-05 20:00 10.36 1250 4550 (1945) 24 (1982) 426 39 40 61 72 200 416 468 999 2050
2020-08-05 19:00 10.24 1220 4550 (1945) 24 (1982) 426 39 40 61 72 200 416 468 999 2050
2020-08-05 18:00 10.15 1200 4550 (1945) 24 (1982) 426 39 40 61 72 200 416 468 999 2050
2020-08-05 17:00 10.03 1170 4550 (1945) 24 (1982) 426 39 40 61 72 200 416 468 999 2050
2020-08-05 16:00 9.87 1130 4550 (1945) 24 (1982) 426 39 40 61 72 200 416 468 999 2050
2020-08-05 15:00 9.65 1080 4550 (1945) 24 (1982) 426 39 40 61 72 200 416 468 999 2050
2020-08-05 14:00 9.27 991 4550 (1945) 24 (1982) 426 39 40 61 72 200 416 468 999 2050
2020-08-05 13:00 9.27 991 4550 (1945) 24 (1982) 426 39 40 61 72 200 416 468 999 2050
2020-08-05 12:00 9.28 993 4550 (1945) 24 (1982) 426 39 40 61 72 200 416 468 999 2050
2020-08-05 11:00 9.27 991 4550 (1945) 24 (1982) 426 39 40 61 72 200 416 468 999 2050
2020-08-05 10:00 9.28 993 4550 (1945) 24 (1982) 426 39 40 61 72 200 416 468 999 2050
2020-08-05 09:00 9.29 995 4550 (1945) 24 (1982) 426 39 40 61 72 200 416 468 999 2050
2020-08-05 08:00 9.29 995 4550 (1945) 24 (1982) 426 39 40 61 72 200 416 468 999 2050
2020-08-05 07:00 9.29 995 4550 (1945) 24 (1982) 426 39 40 61 72 200 416 468 999 2050
2020-08-05 06:00 9.29 995 4550 (1945) 24 (1982) 426 39 40 61 72 200 416 468 999 2050
2020-08-05 05:00 9.29 995 4550 (1945) 24 (1982) 426 39 40 61 72 200 416 468 999 2050
2020-08-05 04:00 9.29 995 4550 (1945) 24 (1982) 426 39 40 61 72 200 416 468 999 2050
2020-08-05 03:00 9.29 995 4550 (1945) 24 (1982) 426 39 40 61 72 200 416 468 999 2050
2020-08-05 02:00 9.28 993 4550 (1945) 24 (1982) 426 39 40 61 72 200 416 468 999 2050
2020-08-05 01:00 9.27 991 4550 (1945) 24 (1982) 426 39 40 61 72 200 416 468 999 2050
2020-08-05 00:00 9.28 993 4550 (1945) 24 (1982) 426 39 40 61 72 200 416 468 999 2050
2020-08-04 23:00 9.27 991 4650 (1945) 0 (1982) 444 40 40 67 88 192 370 544 1040 2160
2020-08-04 22:00 9.26 988 4650 (1945) 0 (1982) 444 40 40 67 88 192 370 544 1040 2160
2020-08-04 21:00 9.26 988 4650 (1945) 0 (1982) 444 40 40 67 88 192 370 544 1040 2160
2020-08-04 20:00 9.26 988 4650 (1945) 0 (1982) 444 40 40 67 88 192 370 544 1040 2160
2020-08-04 19:00 9.26 988 4650 (1945) 0 (1982) 444 40 40 67 88 192 370 544 1040 2160
2020-08-04 18:00 9.25 986 4650 (1945) 0 (1982) 444 40 40 67 88 192 370 544 1040 2160
2020-08-04 17:00 9.24 984 4650 (1945) 0 (1982) 444 40 40 67 88 192 370 544 1040 2160
2020-08-04 16:00 9.24 984 4650 (1945) 0 (1982) 444 40 40 67 88 192 370 544 1040 2160
2020-08-04 15:00 9.22 979 4650 (1945) 0 (1982) 444 40 40 67 88 192 370 544 1040 2160
2020-08-04 14:00 9.22 979 4650 (1945) 0 (1982) 444 40 40 67 88 192 370 544 1040 2160
2020-08-04 13:00 9.22 979 4650 (1945) 0 (1982) 444 40 40 67 88 192 370 544 1040 2160
2020-08-04 12:00 9.21 977 4650 (1945) 0 (1982) 444 40 40 67 88 192 370 544 1040 2160
2020-08-04 11:00 9.20 975 4650 (1945) 0 (1982) 444 40 40 67 88 192 370 544 1040 2160
2020-08-04 10:00 9.21 977 4650 (1945) 0 (1982) 444 40 40 67 88 192 370 544 1040 2160
2020-08-04 09:00 9.20 975 4650 (1945) 0 (1982) 444 40 40 67 88 192 370 544 1040 2160
2020-08-04 08:00 9.19 973 4650 (1945) 0 (1982) 444 40 40 67 88 192 370 544 1040 2160
2020-08-04 07:00 9.19 973 4650 (1945) 0 (1982) 444 40 40 67 88 192 370 544 1040 2160
2020-08-04 06:00 9.17 968 4650 (1945) 0 (1982) 444 40 40 67 88 192 370 544 1040 2160
2020-08-04 05:00 9.15 964 4650 (1945) 0 (1982) 444 40 40 67 88 192 370 544 1040 2160
2020-08-04 04:00 9.14 961 4650 (1945) 0 (1982) 444 40 40 67 88 192 370 544 1040 2160
2020-08-04 03:00 9.11 955 4650 (1945) 0 (1982) 444 40 40 67 88 192 370 544 1040 2160
2020-08-04 02:00 9.09 950 4650 (1945) 0 (1982) 444 40 40 67 88 192 370 544 1040 2160
2020-08-04 01:00 9.06 944 4650 (1945) 0 (1982) 444 40 40 67 88 192 370 544 1040 2160
2020-08-04 00:00 9.03 937 4650 (1945) 0 (1982) 444 40 40 67 88 192 370 544 1040 2160
2020-08-03 23:00 9.01 933 4700 (1945) 0 (1982) 450 39 40 50 72 200 422 520 1170 2270
2020-08-03 22:00 8.95 920 4700 (1945) 0 (1982) 450 39 40 50 72 200 422 520 1170 2270
2020-08-03 21:00 8.91 911 4700 (1945) 0 (1982) 450 39 40 50 72 200 422 520 1170 2270
2020-08-03 20:00 8.85 898 4700 (1945) 0 (1982) 450 39 40 50 72 200 422 520 1170 2270
2020-08-03 19:00 8.80 887 4700 (1945) 0 (1982) 450 39 40 50 72 200 422 520 1170 2270
2020-08-03 18:00 8.72 870 4700 (1945) 0 (1982) 450 39 40 50 72 200 422 520 1170 2270
2020-08-03 17:00 8.64 853 4700 (1945) 0 (1982) 450 39 40 50 72 200 422 520 1170 2270
2020-08-03 16:00 8.52 827 4700 (1945) 0 (1982) 450 39 40 50 72 200 422 520 1170 2270
2020-08-03 15:00 8.39 800 4700 (1945) 0 (1982) 450 39 40 50 72 200 422 520 1170 2270
2020-08-03 14:00 8.22 765 4700 (1945) 0 (1982) 450 39 40 50 72 200 422 520 1170 2270
2020-08-03 13:00 7.99 719 4700 (1945) 0 (1982) 450 39 40 50 72 200 422 520 1170 2270
2020-08-03 12:00 7.48 620 4700 (1945) 0 (1982) 450 39 40 50 72 200 422 520 1170 2270
2020-08-03 11:00 7.48 620 4700 (1945) 0 (1982) 450 39 40 50 72 200 422 520 1170 2270
2020-08-03 10:00 7.48 620 4700 (1945) 0 (1982) 450 39 40 50 72 200 422 520 1170 2270
2020-08-03 09:00 7.48 620 4700 (1945) 0 (1982) 450 39 40 50 72 200 422 520 1170 2270
2020-08-03 08:00 7.49 622 4700 (1945) 0 (1982) 450 39 40 50 72 200 422 520 1170 2270
2020-08-03 07:00 7.49 622 4700 (1945) 0 (1982) 450 39 40 50 72 200 422 520 1170 2270
2020-08-03 06:00 7.49 622 4700 (1945) 0 (1982) 450 39 40 50 72 200 422 520 1170 2270
2020-08-03 05:00 7.48 620 4700 (1945) 0 (1982) 450 39 40 50 72 200 422 520 1170 2270
2020-08-03 04:00 7.48 620 4700 (1945) 0 (1982) 450 39 40 50 72 200 422 520 1170 2270
2020-08-03 03:00 7.48 620 4700 (1945) 0 (1982) 450 39 40 50 72 200 422 520 1170 2270
2020-08-03 02:00 7.48 620 4700 (1945) 0 (1982) 450 39 40 50 72 200 422 520 1170 2270
2020-08-03 01:00 7.47 618 4700 (1945) 0 (1982) 450 39 40 50 72 200 422 520 1170 2270
2020-08-03 00:00 7.48 620 4700 (1945) 0 (1982) 450 39 40 50 72 200 422 520 1170 2270
2020-08-02 23:00 7.47 618 4740 (1945) 34 (1944) 456 39 40 52 68 192 390 528 1280 2260
2020-08-02 22:00 7.47 618 4740 (1945) 34 (1944) 456 39 40 52 68 192 390 528 1280 2260
2020-08-02 21:00 7.47 618 4740 (1945) 34 (1944) 456 39 40 52 68 192 390 528 1280 2260
2020-08-02 20:00 7.47 618 4740 (1945) 34 (1944) 456 39 40 52 68 192 390 528 1280 2260
2020-08-02 19:00 7.46 616 4740 (1945) 34 (1944) 456 39 40 52 68 192 390 528 1280 2260
2020-08-02 18:00 7.46 616 4740 (1945) 34 (1944) 456 39 40 52 68 192 390 528 1280 2260
2020-08-02 17:00 7.46 616 4740 (1945) 34 (1944) 456 39 40 52 68 192 390 528 1280 2260
2020-08-02 16:00 7.46 616 4740 (1945) 34 (1944) 456 39 40 52 68 192 390 528 1280 2260
2020-08-02 15:00 7.45 614 4740 (1945) 34 (1944) 456 39 40 52 68 192 390 528 1280 2260
2020-08-02 14:00 7.45 614 4740 (1945) 34 (1944) 456 39 40 52 68 192 390 528 1280 2260
2020-08-02 13:00 7.45 614 4740 (1945) 34 (1944) 456 39 40 52 68 192 390 528 1280 2260
2020-08-02 12:00 7.45 614 4740 (1945) 34 (1944) 456 39 40 52 68 192 390 528 1280 2260
2020-08-02 11:00 7.45 614 4740 (1945) 34 (1944) 456 39 40 52 68 192 390 528 1280 2260
2020-08-02 10:00 7.45 614 4740 (1945) 34 (1944) 456 39 40 52 68 192 390 528 1280 2260
2020-08-02 09:00 7.45 614 4740 (1945) 34 (1944) 456 39 40 52 68 192 390 528 1280 2260
2020-08-02 08:00 7.45 614 4740 (1945) 34 (1944) 456 39 40 52 68 192 390 528 1280 2260
2020-08-02 07:00 7.45 614 4740 (1945) 34 (1944) 456 39 40 52 68 192 390 528 1280 2260
2020-08-02 06:00 7.45 614 4740 (1945) 34 (1944) 456 39 40 52 68 192 390 528 1280 2260
2020-08-02 05:00 7.45 614 4740 (1945) 34 (1944) 456 39 40 52 68 192 390 528 1280 2260
2020-08-02 04:00 7.44 612 4740 (1945) 34 (1944) 456 39 40 52 68 192 390 528 1280 2260
2020-08-02 03:00 7.44 612 4740 (1945) 34 (1944) 456 39 40 52 68 192 390 528 1280 2260
2020-08-02 02:00 7.44 612 4740 (1945) 34 (1944) 456 39 40 52 68 192 390 528 1280 2260
2020-08-02 01:00 7.43 610 4740 (1945) 34 (1944) 456 39 40 52 68 192 390 528 1280 2260
2020-08-02 00:00 7.43 610 4740 (1945) 34 (1944) 456 39 40 52 68 192 390 528 1280 2260
2020-08-01 23:00 7.42 608 4790 (1945) 15 (2011) 461 40 40 64 80 191 400 430 1250 2570
2020-08-01 22:00 7.41 606 4790 (1945) 15 (2011) 461 40 40 64 80 191 400 430 1250 2570
2020-08-01 20:00 7.40 605 4790 (1945) 15 (2011) 461 40 40 64 80 191 400 430 1250 2570
2020-08-01 19:00 7.40 605 4790 (1945) 15 (2011) 461 40 40 64 80 191 400 430 1250 2570
2020-08-01 18:00 7.39 603 4790 (1945) 15 (2011) 461 40 40 64 80 191 400 430 1250 2570
2020-08-01 17:00 7.40 605 4790 (1945) 15 (2011) 461 40 40 64 80 191 400 430 1250 2570
2020-08-01 16:00 7.39 603 4790 (1945) 15 (2011) 461 40 40 64 80 191 400 430 1250 2570
2020-08-01 15:00 7.39 603 4790 (1945) 15 (2011) 461 40 40 64 80 191 400 430 1250 2570
2020-08-01 14:00 7.39 603 4790 (1945) 15 (2011) 461 40 40 64 80 191 400 430 1250 2570
2020-08-01 13:00 7.39 603 4790 (1945) 15 (2011) 461 40 40 64 80 191 400 430 1250 2570
2020-08-01 12:00 7.39 603 4790 (1945) 15 (2011) 461 40 40 64 80 191 400 430 1250 2570
2020-08-01 11:00 7.39 603 4790 (1945) 15 (2011) 461 40 40 64 80 191 400 430 1250 2570
2020-08-01 10:00 7.38 601 4790 (1945) 15 (2011) 461 40 40 64 80 191 400 430 1250 2570
2020-08-01 09:00 7.39 603 4790 (1945) 15 (2011) 461 40 40 64 80 191 400 430 1250 2570
2020-08-01 08:00 7.38 601 4790 (1945) 15 (2011) 461 40 40 64 80 191 400 430 1250 2570
2020-08-01 07:00 7.38 601 4790 (1945) 15 (2011) 461 40 40 64 80 191 400 430 1250 2570
2020-08-01 06:00 7.37 599 4790 (1945) 15 (2011) 461 40 40 64 80 191 400 430 1250 2570
2020-08-01 05:00 7.37 599 4790 (1945) 15 (2011) 461 40 40 64 80 191 400 430 1250 2570
2020-08-01 04:00 7.36 597 4790 (1945) 15 (2011) 461 40 40 64 80 191 400 430 1250 2570
2020-08-01 03:00 7.35 595 4790 (1945) 15 (2011) 461 40 40 64 80 191 400 430 1250 2570
2020-08-01 02:00 7.33 592 4790 (1945) 15 (2011) 461 40 40 64 80 191 400 430 1250 2570
2020-08-01 01:00 7.33 592 4790 (1945) 15 (2011) 461 40 40 64 80 191 400 430 1250 2570
2020-08-01 00:00 7.30 586 4790 (1945) 15 (2011) 461 40 40 64 80 191 400 430 1250 2570
2020-07-31 23:00 7.27 580 4840 (1945) 16 (2011) 466 40 40 56 70 192 424 508 1280 2640
2020-07-31 22:00 7.22 571 4840 (1945) 16 (2011) 466 40 40 56 70 192 424 508 1280 2640
2020-07-31 21:00 7.12 553 4840 (1945) 16 (2011) 466 40 40 56 70 192 424 508 1280 2640
2020-07-31 20:00 7.05 540 4840 (1945) 16 (2011) 466 40 40 56 70 192 424 508 1280 2640
2020-07-31 19:00 7.00 532 4840 (1945) 16 (2011) 466 40 40 56 70 192 424 508 1280 2640
2020-07-31 18:00 6.95 523 4840 (1945) 16 (2011) 466 40 40 56 70 192 424 508 1280 2640
2020-07-31 17:00 6.88 511 4840 (1945) 16 (2011) 466 40 40 56 70 192 424 508 1280 2640
2020-07-31 16:00 6.81 499 4840 (1945) 16 (2011) 466 40 40 56 70 192 424 508 1280 2640
2020-07-31 15:00 6.71 481 4840 (1945) 16 (2011) 466 40 40 56 70 192 424 508 1280 2640
2020-07-31 14:00 6.60 462 4840 (1945) 16 (2011) 466 40 40 56 70 192 424 508 1280 2640
2020-07-31 13:00 6.44 434 4840 (1945) 16 (2011) 466 40 40 56 70 192 424 508 1280 2640
2020-07-31 12:00 6.20 395 4840 (1945) 16 (2011) 466 40 40 56 70 192 424 508 1280 2640
2020-07-31 11:00 6.16 389 4840 (1945) 16 (2011) 466 40 40 56 70 192 424 508 1280 2640
2020-07-31 10:00 5.97 355 4840 (1945) 16 (2011) 466 40 40 56 70 192 424 508 1280 2640
2020-07-31 09:00 5.82 329 4840 (1945) 16 (2011) 466 40 40 56 70 192 424 508 1280 2640
2020-07-31 08:00 5.82 329 4840 (1945) 16 (2011) 466 40 40 56 70 192 424 508 1280 2640
2020-07-31 07:00 5.82 329 4840 (1945) 16 (2011) 466 40 40 56 70 192 424 508 1280 2640
2020-07-31 06:00 5.83 330 4840 (1945) 16 (2011) 466 40 40 56 70 192 424 508 1280 2640
2020-07-31 05:00 5.83 330 4840 (1945) 16 (2011) 466 40 40 56 70 192 424 508 1280 2640
2020-07-31 04:00 5.83 330 4840 (1945) 16 (2011) 466 40 40 56 70 192 424 508 1280 2640
2020-07-31 03:00 5.83 330 4840 (1945) 16 (2011) 466 40 40 56 70 192 424 508 1280 2640
2020-07-31 02:00 5.83 330 4840 (1945) 16 (2011) 466 40 40 56 70 192 424 508 1280 2640
2020-07-31 01:00 5.83 330 4840 (1945) 16 (2011) 466 40 40 56 70 192 424 508 1280 2640
2020-07-31 00:00 5.83 330 4840 (1945) 16 (2011) 466 40 40 56 70 192 424 508 1280 2640
2020-07-30 23:00 5.84 332 4840 (1945) 16 (2011) 506 40 40 71 89 262 430 553 1420 2460
2020-07-30 22:00 5.84 332 4840 (1945) 16 (2011) 506 40 40 71 89 262 430 553 1420 2460
2020-07-30 21:00 5.84 332 4840 (1945) 16 (2011) 506 40 40 71 89 262 430 553 1420 2460
2020-07-30 20:00 5.85 334 4840 (1945) 16 (2011) 506 40 40 71 89 262 430 553 1420 2460
2020-07-30 19:00 5.85 334 4840 (1945) 16 (2011) 506 40 40 71 89 262 430 553 1420 2460
2020-07-30 18:00 5.86 336 4840 (1945) 16 (2011) 506 40 40 71 89 262 430 553 1420 2460
2020-07-30 17:00 5.86 336 4840 (1945) 16 (2011) 506 40 40 71 89 262 430 553 1420 2460
2020-07-30 16:00 5.87 337 4840 (1945) 16 (2011) 506 40 40 71 89 262 430 553 1420 2460
2020-07-30 15:00 5.88 339 4840 (1945) 16 (2011) 506 40 40 71 89 262 430 553 1420 2460
2020-07-30 14:00 5.89 341 4840 (1945) 16 (2011) 506 40 40 71 89 262 430 553 1420 2460
2020-07-30 13:00 5.90 342 4840 (1945) 16 (2011) 506 40 40 71 89 262 430 553 1420 2460
2020-07-30 12:00 5.91 344 4840 (1945) 16 (2011) 506 40 40 71 89 262 430 553 1420 2460
2020-07-30 11:00 5.93 348 4840 (1945) 16 (2011) 506 40 40 71 89 262 430 553 1420 2460
2020-07-30 10:00 5.94 349 4840 (1945) 16 (2011) 506 40 40 71 89 262 430 553 1420 2460
2020-07-30 09:00 5.94 349 4840 (1945) 16 (2011) 506 40 40 71 89 262 430 553 1420 2460
2020-07-30 08:00 5.96 353 4840 (1945) 16 (2011) 506 40 40 71 89 262 430 553 1420 2460
2020-07-30 07:00 5.95 351 4840 (1945) 16 (2011) 506 40 40 71 89 262 430 553 1420 2460
2020-07-30 06:00 5.95 351 4840 (1945) 16 (2011) 506 40 40 71 89 262 430 553 1420 2460
2020-07-30 05:00 5.92 346 4840 (1945) 16 (2011) 506 40 40 71 89 262 430 553 1420 2460
2020-07-30 04:00 5.90 342 4840 (1945) 16 (2011) 506 40 40 71 89 262 430 553 1420 2460
2020-07-30 03:00 5.78 322 4840 (1945) 16 (2011) 506 40 40 71 89 262 430 553 1420 2460
2020-07-30 02:00 5.77 320 4840 (1945) 16 (2011) 506 40 40 71 89 262 430 553 1420 2460
2020-07-30 01:00 5.77 320 4840 (1945) 16 (2011) 506 40 40 71 89 262 430 553 1420 2460
2020-07-30 00:00 5.77 320 4840 (1945) 16 (2011) 506 40 40 71 89 262 430 553 1420 2460
2020-07-29 23:00 5.76 319 4880 (1945) 17 (2011) 526 40 40 70 101 262 530 639 1350 2540
2020-07-29 21:00 5.76 319 4880 (1945) 17 (2011) 526 40 40 70 101 262 530 639 1350 2540
2020-07-29 20:00 5.76 319 4880 (1945) 17 (2011) 526 40 40 70 101 262 530 639 1350 2540
2020-07-29 19:00 5.76 319 4880 (1945) 17 (2011) 526 40 40 70 101 262 530 639 1350 2540
2020-07-29 18:00 5.76 319 4880 (1945) 17 (2011) 526 40 40 70 101 262 530 639 1350 2540
2020-07-29 17:00 5.76 319 4880 (1945) 17 (2011) 526 40 40 70 101 262 530 639 1350 2540
2020-07-29 16:00 5.76 319 4880 (1945) 17 (2011) 526 40 40 70 101 262 530 639 1350 2540
2020-07-29 15:00 5.76 319 4880 (1945) 17 (2011) 526 40 40 70 101 262 530 639 1350 2540
2020-07-29 14:00 5.76 319 4880 (1945) 17 (2011) 526 40 40 70 101 262 530 639 1350 2540
2020-07-29 13:00 5.76 319 4880 (1945) 17 (2011) 526 40 40 70 101 262 530 639 1350 2540
2020-07-29 12:00 5.76 319 4880 (1945) 17 (2011) 526 40 40 70 101 262 530 639 1350 2540
2020-07-29 11:00 5.76 319 4880 (1945) 17 (2011) 526 40 40 70 101 262 530 639 1350 2540
2020-07-29 10:00 5.77 320 4880 (1945) 17 (2011) 526 40 40 70 101 262 530 639 1350 2540
2020-07-29 09:00 5.77 320 4880 (1945) 17 (2011) 526 40 40 70 101 262 530 639 1350 2540
2020-07-29 08:00 5.77 320 4880 (1945) 17 (2011) 526 40 40 70 101 262 530 639 1350 2540
2020-07-29 07:00 5.77 320 4880 (1945) 17 (2011) 526 40 40 70 101 262 530 639 1350 2540
2020-07-29 06:00 5.77 320 4880 (1945) 17 (2011) 526 40 40 70 101 262 530 639 1350 2540
2020-07-29 05:00 5.77 320 4880 (1945) 17 (2011) 526 40 40 70 101 262 530 639 1350 2540
2020-07-29 04:00 5.77 320 4880 (1945) 17 (2011) 526 40 40 70 101 262 530 639 1350 2540
2020-07-29 03:00 5.77 320 4880 (1945) 17 (2011) 526 40 40 70 101 262 530 639 1350 2540
2020-07-29 02:00 5.77 320 4880 (1945) 17 (2011) 526 40 40 70 101 262 530 639 1350 2540
2020-07-29 01:00 5.76 319 4880 (1945) 17 (2011) 526 40 40 70 101 262 530 639 1350 2540
2020-07-29 00:00 5.76 319 4880 (1945) 17 (2011) 526 40 40 70 101 262 530 639 1350 2540
2020-07-28 23:00 5.76 319 4930 (1945) 18 (2011) 490 40 40 76 88 275 455 547 1270 2240
2020-07-28 22:00 5.76 319 4930 (1945) 18 (2011) 490 40 40 76 88 275 455 547 1270 2240
2020-07-28 21:00 5.76 319 4930 (1945) 18 (2011) 490 40 40 76 88 275 455 547 1270 2240
2020-07-28 20:00 5.76 319 4930 (1945) 18 (2011) 490 40 40 76 88 275 455 547 1270 2240
2020-07-28 19:00 5.76 319 4930 (1945) 18 (2011) 490 40 40 76 88 275 455 547 1270 2240
2020-07-28 18:00 5.76 319 4930 (1945) 18 (2011) 490 40 40 76 88 275 455 547 1270 2240
2020-07-28 17:00 5.76 319 4930 (1945) 18 (2011) 490 40 40 76 88 275 455 547 1270 2240
2020-07-28 16:00 5.76 319 4930 (1945) 18 (2011) 490 40 40 76 88 275 455 547 1270 2240
2020-07-28 15:00 5.76 319 4930 (1945) 18 (2011) 490 40 40 76 88 275 455 547 1270 2240
2020-07-28 14:00 5.76 319 4930 (1945) 18 (2011) 490 40 40 76 88 275 455 547 1270 2240
2020-07-28 13:00 5.77 320 4930 (1945) 18 (2011) 490 40 40 76 88 275 455 547 1270 2240
2020-07-28 12:00 5.77 320 4930 (1945) 18 (2011) 490 40 40 76 88 275 455 547 1270 2240
2020-07-28 11:00 5.77 320 4930 (1945) 18 (2011) 490 40 40 76 88 275 455 547 1270 2240
2020-07-28 10:00 5.78 322 4930 (1945) 18 (2011) 490 40 40 76 88 275 455 547 1270 2240
2020-07-28 09:00 5.78 322 4930 (1945) 18 (2011) 490 40 40 76 88 275 455 547 1270 2240
2020-07-28 08:00 5.78 322 4930 (1945) 18 (2011) 490 40 40 76 88 275 455 547 1270 2240
2020-07-28 07:00 5.78 322 4930 (1945) 18 (2011) 490 40 40 76 88 275 455 547 1270 2240
2020-07-28 06:00 5.78 322 4930 (1945) 18 (2011) 490 40 40 76 88 275 455 547 1270 2240
2020-07-28 05:00 5.78 322 4930 (1945) 18 (2011) 490 40 40 76 88 275 455 547 1270 2240
2020-07-28 04:00 5.78 322 4930 (1945) 18 (2011) 490 40 40 76 88 275 455 547 1270 2240
2020-07-28 03:00 5.78 322 4930 (1945) 18 (2011) 490 40 40 76 88 275 455 547 1270 2240
2020-07-28 02:00 5.78 322 4930 (1945) 18 (2011) 490 40 40 76 88 275 455 547 1270 2240
2020-07-28 01:00 5.78 322 4930 (1945) 18 (2011) 490 40 40 76 88 275 455 547 1270 2240
2020-07-28 00:00 5.78 322 4930 (1945) 18 (2011) 490 40 40 76 88 275 455 547 1270 2240
2020-07-27 23:00 5.77 320 4930 (1945) 19 (2011) 501 40 40 73 80 220 463 536 1420 2370
2020-07-27 22:00 5.77 320 4930 (1945) 19 (2011) 501 40 40 73 80 220 463 536 1420 2370
2020-07-27 21:00 5.77 320 4930 (1945) 19 (2011) 501 40 40 73 80 220 463 536 1420 2370
2020-07-27 20:00 5.77 320 4930 (1945) 19 (2011) 501 40 40 73 80 220 463 536 1420 2370
2020-07-27 19:00 5.77 320 4930 (1945) 19 (2011) 501 40 40 73 80 220 463 536 1420 2370
2020-07-27 18:00 5.77 320 4930 (1945) 19 (2011) 501 40 40 73 80 220 463 536 1420 2370
2020-07-27 17:00 5.78 322 4930 (1945) 19 (2011) 501 40 40 73 80 220 463 536 1420 2370
2020-07-27 16:00 5.78 322 4930 (1945) 19 (2011) 501 40 40 73 80 220 463 536 1420 2370
2020-07-27 15:00 5.78 322 4930 (1945) 19 (2011) 501 40 40 73 80 220 463 536 1420 2370
2020-07-27 14:00 5.78 322 4930 (1945) 19 (2011) 501 40 40 73 80 220 463 536 1420 2370
2020-07-27 13:00 5.78 322 4930 (1945) 19 (2011) 501 40 40 73 80 220 463 536 1420 2370
2020-07-27 12:00 5.78 322 4930 (1945) 19 (2011) 501 40 40 73 80 220 463 536 1420 2370
2020-07-27 11:00 5.78 322 4930 (1945) 19 (2011) 501 40 40 73 80 220 463 536 1420 2370
2020-07-27 10:00 5.78 322 4930 (1945) 19 (2011) 501 40 40 73 80 220 463 536 1420 2370
2020-07-27 09:00 5.79 324 4930 (1945) 19 (2011) 501 40 40 73 80 220 463 536 1420 2370
2020-07-27 08:00 5.79 324 4930 (1945) 19 (2011) 501 40 40 73 80 220 463 536 1420 2370
2020-07-27 07:00 5.79 324 4930 (1945) 19 (2011) 501 40 40 73 80 220 463 536 1420 2370
2020-07-27 06:00 5.79 324 4930 (1945) 19 (2011) 501 40 40 73 80 220 463 536 1420 2370
2020-07-27 05:00 5.79 324 4930 (1945) 19 (2011) 501 40 40 73 80 220 463 536 1420 2370
2020-07-27 04:00 5.79 324 4930 (1945) 19 (2011) 501 40 40 73 80 220 463 536 1420 2370
2020-07-27 03:00 5.79 324 4930 (1945) 19 (2011) 501 40 40 73 80 220 463 536 1420 2370
2020-07-27 02:00 5.79 324 4930 (1945) 19 (2011) 501 40 40 73 80 220 463 536 1420 2370
2020-07-27 01:00 5.79 324 4930 (1945) 19 (2011) 501 40 40 73 80 220 463 536 1420 2370
2020-07-27 00:00 5.79 324 4930 (1945) 19 (2011) 501 40 40 73 80 220 463 536 1420 2370
2020-07-26 23:00 5.79 324 4980 (1945) 20 (2011) 537 38 40 76 85 200 429 466 1900 2390
2020-07-26 22:00 5.79 324 4980 (1945) 20 (2011) 537 38 40 76 85 200 429 466 1900 2390
2020-07-26 21:00 5.78 322 4980 (1945) 20 (2011) 537 38 40 76 85 200 429 466 1900 2390
2020-07-26 20:00 5.79 324 4980 (1945) 20 (2011) 537 38 40 76 85 200 429 466 1900 2390
2020-07-26 19:00 5.78 322 4980 (1945) 20 (2011) 537 38 40 76 85 200 429 466 1900 2390
2020-07-26 18:00 5.78 322 4980 (1945) 20 (2011) 537 38 40 76 85 200 429 466 1900 2390
2020-07-26 17:00 5.78 322 4980 (1945) 20 (2011) 537 38 40 76 85 200 429 466 1900 2390
2020-07-26 16:00 5.78 322 4980 (1945) 20 (2011) 537 38 40 76 85 200 429 466 1900 2390
2020-07-26 15:00 5.79 324 4980 (1945) 20 (2011) 537 38 40 76 85 200 429 466 1900 2390
2020-07-26 14:00 5.79 324 4980 (1945) 20 (2011) 537 38 40 76 85 200 429 466 1900 2390
2020-07-26 13:00 5.79 324 4980 (1945) 20 (2011) 537 38 40 76 85 200 429 466 1900 2390
2020-07-26 12:00 5.79 324 4980 (1945) 20 (2011) 537 38 40 76 85 200 429 466 1900 2390
2020-07-26 11:00 5.79 324 4980 (1945) 20 (2011) 537 38 40 76 85 200 429 466 1900 2390
2020-07-26 10:00 5.79 324 4980 (1945) 20 (2011) 537 38 40 76 85 200 429 466 1900 2390
2020-07-26 09:00 5.80 325 4980 (1945) 20 (2011) 537 38 40 76 85 200 429 466 1900 2390
2020-07-26 08:00 5.80 325 4980 (1945) 20 (2011) 537 38 40 76 85 200 429 466 1900 2390
2020-07-26 07:00 5.80 325 4980 (1945) 20 (2011) 537 38 40 76 85 200 429 466 1900 2390
2020-07-26 06:00 5.80 325 4980 (1945) 20 (2011) 537 38 40 76 85 200 429 466 1900 2390
2020-07-26 05:00 5.80 325 4980 (1945) 20 (2011) 537 38 40 76 85 200 429 466 1900 2390
2020-07-26 04:00 5.80 325 4980 (1945) 20 (2011) 537 38 40 76 85 200 429 466 1900 2390
2020-07-26 03:00 5.79 324 4980 (1945) 20 (2011) 537 38 40 76 85 200 429 466 1900 2390
2020-07-26 02:00 5.80 325 4980 (1945) 20 (2011) 537 38 40 76 85 200 429 466 1900 2390
2020-07-26 01:00 5.80 325 4980 (1945) 20 (2011) 537 38 40 76 85 200 429 466 1900 2390
2020-07-26 00:00 5.80 325 4980 (1945) 20 (2011) 537 38 40 76 85 200 429 466 1900 2390
2020-07-25 23:00 5.80 325 4980 (1945) 22 (2011) 556 37 40 70 80 200 453 630 1950 2620
2020-07-25 22:00 5.80 325 4980 (1945) 22 (2011) 556 37 40 70 80 200 453 630 1950 2620
2020-07-25 21:00 5.79 324 4980 (1945) 22 (2011) 556 37 40 70 80 200 453 630 1950 2620
2020-07-25 20:00 5.79 324 4980 (1945) 22 (2011) 556 37 40 70 80 200 453 630 1950 2620
2020-07-25 19:00 5.79 324 4980 (1945) 22 (2011) 556 37 40 70 80 200 453 630 1950 2620
2020-07-25 18:00 5.80 325 4980 (1945) 22 (2011) 556 37 40 70 80 200 453 630 1950 2620
2020-07-25 17:00 5.79 324 4980 (1945) 22 (2011) 556 37 40 70 80 200 453 630 1950 2620
2020-07-25 16:00 5.79 324 4980 (1945) 22 (2011) 556 37 40 70 80 200 453 630 1950 2620
2020-07-25 15:00 5.80 325 4980 (1945) 22 (2011) 556 37 40 70 80 200 453 630 1950 2620
2020-07-25 14:00 5.80 325 4980 (1945) 22 (2011) 556 37 40 70 80 200 453 630 1950 2620
2020-07-25 13:00 5.80 325 4980 (1945) 22 (2011) 556 37 40 70 80 200 453 630 1950 2620
2020-07-25 12:00 5.80 325 4980 (1945) 22 (2011) 556 37 40 70 80 200 453 630 1950 2620
2020-07-25 11:00 5.80 325 4980 (1945) 22 (2011) 556 37 40 70 80 200 453 630 1950 2620
2020-07-25 10:00 5.81 327 4980 (1945) 22 (2011) 556 37 40 70 80 200 453 630 1950 2620
2020-07-25 09:00 5.80 325 4980 (1945) 22 (2011) 556 37 40 70 80 200 453 630 1950 2620
2020-07-25 08:00 5.80 325 4980 (1945) 22 (2011) 556 37 40 70 80 200 453 630 1950 2620
2020-07-25 07:00 5.80 325 4980 (1945) 22 (2011) 556 37 40 70 80 200 453 630 1950 2620
2020-07-25 06:00 5.80 325 4980 (1945) 22 (2011) 556 37 40 70 80 200 453 630 1950 2620
2020-07-25 05:00 5.80 325 4980 (1945) 22 (2011) 556 37 40 70 80 200 453 630 1950 2620
2020-07-25 04:00 5.80 325 4980 (1945) 22 (2011) 556 37 40 70 80 200 453 630 1950 2620
2020-07-25 03:00 5.80 325 4980 (1945) 22 (2011) 556 37 40 70 80 200 453 630 1950 2620
2020-07-25 02:00 5.80 325 4980 (1945) 22 (2011) 556 37 40 70 80 200 453 630 1950 2620
2020-07-25 01:00 5.80 325 4980 (1945) 22 (2011) 556 37 40 70 80 200 453 630 1950 2620
2020-07-25 00:00 5.80 325 4980 (1945) 22 (2011) 556 37 40 70 80 200 453 630 1950 2620
2020-07-24 23:00 5.79 324 5620 (1958) 25 (2011) 557 40 40 69 80 201 405 488 2140 2840
2020-07-24 22:00 5.79 324 5620 (1958) 25 (2011) 557 40 40 69 80 201 405 488 2140 2840
2020-07-24 21:00 5.79 324 5620 (1958) 25 (2011) 557 40 40 69 80 201 405 488 2140 2840
2020-07-24 20:00 5.79 324 5620 (1958) 25 (2011) 557 40 40 69 80 201 405 488 2140 2840
2020-07-24 19:00 5.79 324 5620 (1958) 25 (2011) 557 40 40 69 80 201 405 488 2140 2840
2020-07-24 18:00 5.78 322 5620 (1958) 25 (2011) 557 40 40 69 80 201 405 488 2140 2840
2020-07-24 17:00 5.78 322 5620 (1958) 25 (2011) 557 40 40 69 80 201 405 488 2140 2840
2020-07-24 16:00 5.79 324 5620 (1958) 25 (2011) 557 40 40 69 80 201 405 488 2140 2840
2020-07-24 15:00 5.79 324 5620 (1958) 25 (2011) 557 40 40 69 80 201 405 488 2140 2840
2020-07-24 14:00 5.79 324 5620 (1958) 25 (2011) 557 40 40 69 80 201 405 488 2140 2840
2020-07-24 13:00 5.80 325 5620 (1958) 25 (2011) 557 40 40 69 80 201 405 488 2140 2840
2020-07-24 12:00 5.79 324 5620 (1958) 25 (2011) 557 40 40 69 80 201 405 488 2140 2840
2020-07-24 11:00 5.79 324 5620 (1958) 25 (2011) 557 40 40 69 80 201 405 488 2140 2840
2020-07-24 10:00 5.80 325 5620 (1958) 25 (2011) 557 40 40 69 80 201 405 488 2140 2840
2020-07-24 09:00 5.80 325 5620 (1958) 25 (2011) 557 40 40 69 80 201 405 488 2140 2840
2020-07-24 08:00 5.81 327 5620 (1958) 25 (2011) 557 40 40 69 80 201 405 488 2140 2840
2020-07-24 07:00 5.81 327 5620 (1958) 25 (2011) 557 40 40 69 80 201 405 488 2140 2840
2020-07-24 06:00 5.81 327 5620 (1958) 25 (2011) 557 40 40 69 80 201 405 488 2140 2840
2020-07-24 05:00 5.81 327 5620 (1958) 25 (2011) 557 40 40 69 80 201 405 488 2140 2840
2020-07-24 04:00 5.81 327 5620 (1958) 25 (2011) 557 40 40 69 80 201 405 488 2140 2840
2020-07-24 03:00 5.80 325 5620 (1958) 25 (2011) 557 40 40 69 80 201 405 488 2140 2840
2020-07-24 02:00 5.81 327 5620 (1958) 25 (2011) 557 40 40 69 80 201 405 488 2140 2840
2020-07-24 01:00 5.81 327 5620 (1958) 25 (2011) 557 40 40 69 80 201 405 488 2140 2840
2020-07-24 00:00 5.80 325 5620 (1958) 25 (2011) 557 40 40 69 80 201 405 488 2140 2840
2020-07-23 23:00 5.80 325 6390 (1958) 29 (2011) 562 40 40 49 75 204 387 479 2160 2890
2020-07-23 22:00 5.80 325 6390 (1958) 29 (2011) 562 40 40 49 75 204 387 479 2160 2890
2020-07-23 21:00 5.80 325 6390 (1958) 29 (2011) 562 40 40 49 75 204 387 479 2160 2890
2020-07-23 20:00 5.80 325 6390 (1958) 29 (2011) 562 40 40 49 75 204 387 479 2160 2890
2020-07-23 19:00 5.80 325 6390 (1958) 29 (2011) 562 40 40 49 75 204 387 479 2160 2890
2020-07-23 18:00 5.80 325 6390 (1958) 29 (2011) 562 40 40 49 75 204 387 479 2160 2890
2020-07-23 17:00 5.80 325 6390 (1958) 29 (2011) 562 40 40 49 75 204 387 479 2160 2890
2020-07-23 16:00 5.80 325 6390 (1958) 29 (2011) 562 40 40 49 75 204 387 479 2160 2890
2020-07-23 15:00 5.80 325 6390 (1958) 29 (2011) 562 40 40 49 75 204 387 479 2160 2890
2020-07-23 14:00 5.81 327 6390 (1958) 29 (2011) 562 40 40 49 75 204 387 479 2160 2890
2020-07-23 13:00 5.81 327 6390 (1958) 29 (2011) 562 40 40 49 75 204 387 479 2160 2890
2020-07-23 12:00 5.81 327 6390 (1958) 29 (2011) 562 40 40 49 75 204 387 479 2160 2890
2020-07-23 11:00 5.82 329 6390 (1958) 29 (2011) 562 40 40 49 75 204 387 479 2160 2890
2020-07-23 10:00 5.82 329 6390 (1958) 29 (2011) 562 40 40 49 75 204 387 479 2160 2890
2020-07-23 09:00 5.83 330 6390 (1958) 29 (2011) 562 40 40 49 75 204 387 479 2160 2890
2020-07-23 08:00 5.83 330 6390 (1958) 29 (2011) 562 40 40 49 75 204 387 479 2160 2890
2020-07-23 07:00 5.84 332 6390 (1958) 29 (2011) 562 40 40 49 75 204 387 479 2160 2890
2020-07-23 06:00 5.84 332 6390 (1958) 29 (2011) 562 40 40 49 75 204 387 479 2160 2890
2020-07-23 05:00 5.85 334 6390 (1958) 29 (2011) 562 40 40 49 75 204 387 479 2160 2890
2020-07-23 04:00 5.85 334 6390 (1958) 29 (2011) 562 40 40 49 75 204 387 479 2160 2890
2020-07-23 03:00 5.86 336 6390 (1958) 29 (2011) 562 40 40 49 75 204 387 479 2160 2890
2020-07-23 02:00 5.85 334 6390 (1958) 29 (2011) 562 40 40 49 75 204 387 479 2160 2890
2020-07-23 01:00 5.86 336 6390 (1958) 29 (2011) 562 40 40 49 75 204 387 479 2160 2890
2020-07-23 00:00 5.86 336 6390 (1958) 29 (2011) 562 40 40 49 75 204 387 479 2160 2890
2020-07-22 23:00 5.87 337 6760 (1958) 34 (2011) 609 40 40 79 92 210 457 571 2400 2850
2020-07-22 22:00 5.87 337 6760 (1958) 34 (2011) 609 40 40 79 92 210 457 571 2400 2850
2020-07-22 21:00 5.88 339 6760 (1958) 34 (2011) 609 40 40 79 92 210 457 571 2400 2850
2020-07-22 20:00 5.88 339 6760 (1958) 34 (2011) 609 40 40 79 92 210 457 571 2400 2850
2020-07-22 19:00 5.88 339 6760 (1958) 34 (2011) 609 40 40 79 92 210 457 571 2400 2850
2020-07-22 18:00 5.87 337 6760 (1958) 34 (2011) 609 40 40 79 92 210 457 571 2400 2850
2020-07-22 17:00 5.87 337 6760 (1958) 34 (2011) 609 40 40 79 92 210 457 571 2400 2850
2020-07-22 16:00 5.85 334 6760 (1958) 34 (2011) 609 40 40 79 92 210 457 571 2400 2850
2020-07-22 15:00 5.77 320 6760 (1958) 34 (2011) 609 40 40 79 92 210 457 571 2400 2850
2020-07-22 14:00 5.77 320 6760 (1958) 34 (2011) 609 40 40 79 92 210 457 571 2400 2850
2020-07-22 13:00 5.77 320 6760 (1958) 34 (2011) 609 40 40 79 92 210 457 571 2400 2850
2020-07-22 12:00 5.76 319 6760 (1958) 34 (2011) 609 40 40 79 92 210 457 571 2400 2850
2020-07-22 11:00 5.76 319 6760 (1958) 34 (2011) 609 40 40 79 92 210 457 571 2400 2850
2020-07-22 10:00 5.76 319 6760 (1958) 34 (2011) 609 40 40 79 92 210 457 571 2400 2850
2020-07-22 09:00 5.76 319 6760 (1958) 34 (2011) 609 40 40 79 92 210 457 571 2400 2850
2020-07-22 08:00 5.76 319 6760 (1958) 34 (2011) 609 40 40 79 92 210 457 571 2400 2850
2020-07-22 07:00 5.75 317 6760 (1958) 34 (2011) 609 40 40 79 92 210 457 571 2400 2850
2020-07-22 06:00 5.75 317 6760 (1958) 34 (2011) 609 40 40 79 92 210 457 571 2400 2850
2020-07-22 05:00 5.74 315 6760 (1958) 34 (2011) 609 40 40 79 92 210 457 571 2400 2850
2020-07-22 04:00 5.74 315 6760 (1958) 34 (2011) 609 40 40 79 92 210 457 571 2400 2850
2020-07-22 03:00 5.73 314 6760 (1958) 34 (2011) 609 40 40 79 92 210 457 571 2400 2850
2020-07-22 02:00 5.72 312 6760 (1958) 34 (2011) 609 40 40 79 92 210 457 571 2400 2850
2020-07-22 01:00 5.71 310 6760 (1958) 34 (2011) 609 40 40 79 92 210 457 571 2400 2850
2020-07-22 00:00 5.70 309 6760 (1958) 34 (2011) 609 40 40 79 92 210 457 571 2400 2850
2020-07-21 23:00 5.69 307 7150 (1958) 40 (1948) 633 40 40 70 92 212 504 637 2060 2920
2020-07-21 22:00 5.67 304 7150 (1958) 40 (1948) 633 40 40 70 92 212 504 637 2060 2920
2020-07-21 21:00 5.66 302 7150 (1958) 40 (1948) 633 40 40 70 92 212 504 637 2060 2920
2020-07-21 20:00 5.61 294 7150 (1958) 40 (1948) 633 40 40 70 92 212 504 637 2060 2920
2020-07-21 19:00 5.59 291 7150 (1958) 40 (1948) 633 40 40 70 92 212 504 637 2060 2920
2020-07-21 18:00 5.56 286 7150 (1958) 40 (1948) 633 40 40 70 92 212 504 637 2060 2920
2020-07-21 17:00 5.54 283 7150 (1958) 40 (1948) 633 40 40 70 92 212 504 637 2060 2920
2020-07-21 16:00 5.48 273 7150 (1958) 40 (1948) 633 40 40 70 92 212 504 637 2060 2920
2020-07-21 15:00 5.43 265 7150 (1958) 40 (1948) 633 40 40 70 92 212 504 637 2060 2920
2020-07-21 14:00 5.38 257 7150 (1958) 40 (1948) 633 40 40 70 92 212 504 637 2060 2920
2020-07-21 13:00 5.32 248 7150 (1958) 40 (1948) 633 40 40 70 92 212 504 637 2060 2920
2020-07-21 12:00 5.25 237 7150 (1958) 40 (1948) 633 40 40 70 92 212 504 637 2060 2920
2020-07-21 11:00 5.15 221 7150 (1958) 40 (1948) 633 40 40 70 92 212 504 637 2060 2920
2020-07-21 10:00 4.83 169 7150 (1958) 40 (1948) 633 40 40 70 92 212 504 637 2060 2920
2020-07-21 09:00 4.71 149 7150 (1958) 40 (1948) 633 40 40 70 92 212 504 637 2060 2920
2020-07-21 08:00 4.71 149 7150 (1958) 40 (1948) 633 40 40 70 92 212 504 637 2060 2920
2020-07-21 07:00 4.71 149 7150 (1958) 40 (1948) 633 40 40 70 92 212 504 637 2060 2920
2020-07-21 06:00 4.72 151 7150 (1958) 40 (1948) 633 40 40 70 92 212 504 637 2060 2920
2020-07-21 05:00 4.72 151 7150 (1958) 40 (1948) 633 40 40 70 92 212 504 637 2060 2920
2020-07-21 04:00 4.72 151 7150 (1958) 40 (1948) 633 40 40 70 92 212 504 637 2060 2920
2020-07-21 03:00 4.72 151 7150 (1958) 40 (1948) 633 40 40 70 92 212 504 637 2060 2920
2020-07-21 02:00 4.72 151 7150 (1958) 40 (1948) 633 40 40 70 92 212 504 637 2060 2920
2020-07-21 01:00 4.73 152 7150 (1958) 40 (1948) 633 40 40 70 92 212 504 637 2060 2920
2020-07-21 00:00 4.73 152 7150 (1958) 40 (1948) 633 40 40 70 92 212 504 637 2060 2920
2020-07-20 23:00 4.73 152 7880 (1958) 31 (1944) 647 40 40 71 123 220 488 665 2290 3150
2020-07-20 22:00 4.73 152 7880 (1958) 31 (1944) 647 40 40 71 123 220 488 665 2290 3150
2020-07-20 21:00 4.74 154 7880 (1958) 31 (1944) 647 40 40 71 123 220 488 665 2290 3150
2020-07-20 20:00 4.74 154 7880 (1958) 31 (1944) 647 40 40 71 123 220 488 665 2290 3150
2020-07-20 19:00 4.75 156 7880 (1958) 31 (1944) 647 40 40 71 123 220 488 665 2290 3150
2020-07-20 18:00 4.76 157 7880 (1958) 31 (1944) 647 40 40 71 123 220 488 665 2290 3150
2020-07-20 17:00 4.76 157 7880 (1958) 31 (1944) 647 40 40 71 123 220 488 665 2290 3150
2020-07-20 16:00 4.75 156 7880 (1958) 31 (1944) 647 40 40 71 123 220 488 665 2290 3150
2020-07-20 15:00 4.76 157 7880 (1958) 31 (1944) 647 40 40 71 123 220 488 665 2290 3150
2020-07-20 14:00 4.77 159 7880 (1958) 31 (1944) 647 40 40 71 123 220 488 665 2290 3150
2020-07-20 13:00 4.79 162 7880 (1958) 31 (1944) 647 40 40 71 123 220 488 665 2290 3150
2020-07-20 12:00 4.84 170 7880 (1958) 31 (1944) 647 40 40 71 123 220 488 665 2290 3150
2020-07-20 11:00 4.86 174 7880 (1958) 31 (1944) 647 40 40 71 123 220 488 665 2290 3150
2020-07-20 10:00 4.87 175 7880 (1958) 31 (1944) 647 40 40 71 123 220 488 665 2290 3150
2020-07-20 09:00 4.87 175 7880 (1958) 31 (1944) 647 40 40 71 123 220 488 665 2290 3150
2020-07-20 08:00 4.87 175 7880 (1958) 31 (1944) 647 40 40 71 123 220 488 665 2290 3150
2020-07-20 07:00 4.88 177 7880 (1958) 31 (1944) 647 40 40 71 123 220 488 665 2290 3150
2020-07-20 06:00 4.88 177 7880 (1958) 31 (1944) 647 40 40 71 123 220 488 665 2290 3150
2020-07-20 05:00 4.88 177 7880 (1958) 31 (1944) 647 40 40 71 123 220 488 665 2290 3150
2020-07-20 04:00 4.88 177 7880 (1958) 31 (1944) 647 40 40 71 123 220 488 665 2290 3150
2020-07-20 03:00 4.88 177 7880 (1958) 31 (1944) 647 40 40 71 123 220 488 665 2290 3150
2020-07-20 02:00 4.88 177 7880 (1958) 31 (1944) 647 40 40 71 123 220 488 665 2290 3150
2020-07-20 01:00 4.88 177 7880 (1958) 31 (1944) 647 40 40 71 123 220 488 665 2290 3150
2020-07-20 00:00 4.88 177 7880 (1958) 31 (1944) 647 40 40 71 123 220 488 665 2290 3150
2020-07-19 22:00 4.87 175 6740 (1958) 31 (1944) 615 40 40 52 74 214 499 522 2080 3440
2020-07-19 21:00 4.87 175 6740 (1958) 31 (1944) 615 40 40 52 74 214 499 522 2080 3440
2020-07-19 20:00 4.87 175 6740 (1958) 31 (1944) 615 40 40 52 74 214 499 522 2080 3440
2020-07-19 19:00 4.87 175 6740 (1958) 31 (1944) 615 40 40 52 74 214 499 522 2080 3440
2020-07-19 18:00 4.87 175 6740 (1958) 31 (1944) 615 40 40 52 74 214 499 522 2080 3440
2020-07-19 17:00 4.87 175 6740 (1958) 31 (1944) 615 40 40 52 74 214 499 522 2080 3440
2020-07-19 16:00 4.87 175 6740 (1958) 31 (1944) 615 40 40 52 74 214 499 522 2080 3440
2020-07-19 15:00 4.87 175 6740 (1958) 31 (1944) 615 40 40 52 74 214 499 522 2080 3440
2020-07-19 14:00 4.87 175 6740 (1958) 31 (1944) 615 40 40 52 74 214 499 522 2080 3440
2020-07-19 13:00 4.87 175 6740 (1958) 31 (1944) 615 40 40 52 74 214 499 522 2080 3440
2020-07-19 12:00 4.87 175 6740 (1958) 31 (1944) 615 40 40 52 74 214 499 522 2080 3440
2020-07-19 11:00 4.87 175 6740 (1958) 31 (1944) 615 40 40 52 74 214 499 522 2080 3440
2020-07-19 10:00 4.88 177 6740 (1958) 31 (1944) 615 40 40 52 74 214 499 522 2080 3440
2020-07-19 09:00 4.88 177 6740 (1958) 31 (1944) 615 40 40 52 74 214 499 522 2080 3440
2020-07-19 08:00 4.89 179 6740 (1958) 31 (1944) 615 40 40 52 74 214 499 522 2080 3440
2020-07-19 07:00 4.89 179 6740 (1958) 31 (1944) 615 40 40 52 74 214 499 522 2080 3440
2020-07-19 06:00 4.89 179 6740 (1958) 31 (1944) 615 40 40 52 74 214 499 522 2080 3440
2020-07-19 05:00 4.89 179 6740 (1958) 31 (1944) 615 40 40 52 74 214 499 522 2080 3440
2020-07-19 04:00 4.89 179 6740 (1958) 31 (1944) 615 40 40 52 74 214 499 522 2080 3440
2020-07-19 03:00 4.89 179 6740 (1958) 31 (1944) 615 40 40 52 74 214 499 522 2080 3440
2020-07-19 02:00 4.89 179 6740 (1958) 31 (1944) 615 40 40 52 74 214 499 522 2080 3440
2020-07-19 01:00 4.89 179 6740 (1958) 31 (1944) 615 40 40 52 74 214 499 522 2080 3440
2020-07-19 00:00 4.89 179 6740 (1958) 31 (1944) 615 40 40 52 74 214 499 522 2080 3440
2020-07-18 23:00 4.89 179 4650 (1945) 39 (1944) 609 40 40 54 75 213 470 540 1860 3610
2020-07-18 22:00 4.89 179 4650 (1945) 39 (1944) 609 40 40 54 75 213 470 540 1860 3610
2020-07-18 21:00 4.89 179 4650 (1945) 39 (1944) 609 40 40 54 75 213 470 540 1860 3610
2020-07-18 20:00 4.89 179 4650 (1945) 39 (1944) 609 40 40 54 75 213 470 540 1860 3610
2020-07-18 19:00 4.88 177 4650 (1945) 39 (1944) 609 40 40 54 75 213 470 540 1860 3610
2020-07-18 18:00 4.88 177 4650 (1945) 39 (1944) 609 40 40 54 75 213 470 540 1860 3610
2020-07-18 17:00 4.89 179 4650 (1945) 39 (1944) 609 40 40 54 75 213 470 540 1860 3610
2020-07-18 16:00 4.89 179 4650 (1945) 39 (1944) 609 40 40 54 75 213 470 540 1860 3610
2020-07-18 15:00 4.89 179 4650 (1945) 39 (1944) 609 40 40 54 75 213 470 540 1860 3610
2020-07-18 14:00 4.89 179 4650 (1945) 39 (1944) 609 40 40 54 75 213 470 540 1860 3610
2020-07-18 13:00 4.89 179 4650 (1945) 39 (1944) 609 40 40 54 75 213 470 540 1860 3610
2020-07-18 12:00 4.90 181 4650 (1945) 39 (1944) 609 40 40 54 75 213 470 540 1860 3610
2020-07-18 11:00 4.91 182 4650 (1945) 39 (1944) 609 40 40 54 75 213 470 540 1860 3610
2020-07-18 10:00 4.91 182 4650 (1945) 39 (1944) 609 40 40 54 75 213 470 540 1860 3610
2020-07-18 09:00 4.91 182 4650 (1945) 39 (1944) 609 40 40 54 75 213 470 540 1860 3610
2020-07-18 08:00 4.91 182 4650 (1945) 39 (1944) 609 40 40 54 75 213 470 540 1860 3610
2020-07-18 07:00 4.92 184 4650 (1945) 39 (1944) 609 40 40 54 75 213 470 540 1860 3610
2020-07-18 06:00 4.92 184 4650 (1945) 39 (1944) 609 40 40 54 75 213 470 540 1860 3610
2020-07-18 05:00 4.92 184 4650 (1945) 39 (1944) 609 40 40 54 75 213 470 540 1860 3610
2020-07-18 04:00 4.92 184 4650 (1945) 39 (1944) 609 40 40 54 75 213 470 540 1860 3610
2020-07-18 03:00 4.92 184 4650 (1945) 39 (1944) 609 40 40 54 75 213 470 540 1860 3610
2020-07-18 02:00 4.92 184 4650 (1945) 39 (1944) 609 40 40 54 75 213 470 540 1860 3610
2020-07-18 01:00 4.92 184 4650 (1945) 39 (1944) 609 40 40 54 75 213 470 540 1860 3610
2020-07-18 00:00 4.92 184 4650 (1945) 39 (1944) 609 40 40 54 75 213 470 540 1860 3610
2020-07-17 23:00 4.92 184 5240 (1951) 40 (1947) 630 40 40 81 91 220 580 793 1650 3360
2020-07-17 22:00 4.92 184 5240 (1951) 40 (1947) 630 40 40 81 91 220 580 793 1650 3360
2020-07-17 21:00 4.92 184 5240 (1951) 40 (1947) 630 40 40 81 91 220 580 793 1650 3360
2020-07-17 20:00 4.92 184 5240 (1951) 40 (1947) 630 40 40 81 91 220 580 793 1650 3360
2020-07-17 19:00 4.92 184 5240 (1951) 40 (1947) 630 40 40 81 91 220 580 793 1650 3360
2020-07-17 18:00 4.92 184 5240 (1951) 40 (1947) 630 40 40 81 91 220 580 793 1650 3360
2020-07-17 17:00 4.92 184 5240 (1951) 40 (1947) 630 40 40 81 91 220 580 793 1650 3360
2020-07-17 16:00 4.91 182 5240 (1951) 40 (1947) 630 40 40 81 91 220 580 793 1650 3360
2020-07-17 14:00 4.90 181 5240 (1951) 40 (1947) 630 40 40 81 91 220 580 793 1650 3360
2020-07-17 13:00 4.89 179 5240 (1951) 40 (1947) 630 40 40 81 91 220 580 793 1650 3360
2020-07-17 12:00 4.89 179 5240 (1951) 40 (1947) 630 40 40 81 91 220 580 793 1650 3360
2020-07-17 11:00 4.89 179 5240 (1951) 40 (1947) 630 40 40 81 91 220 580 793 1650 3360
2020-07-17 10:00 4.90 181 5240 (1951) 40 (1947) 630 40 40 81 91 220 580 793 1650 3360
2020-07-17 09:00 4.90 181 5240 (1951) 40 (1947) 630 40 40 81 91 220 580 793 1650 3360
2020-07-17 08:00 4.90 181 5240 (1951) 40 (1947) 630 40 40 81 91 220 580 793 1650 3360
2020-07-17 07:00 4.90 181 5240 (1951) 40 (1947) 630 40 40 81 91 220 580 793 1650 3360
2020-07-17 06:00 4.90 181 5240 (1951) 40 (1947) 630 40 40 81 91 220 580 793 1650 3360
2020-07-17 05:00 4.90 181 5240 (1951) 40 (1947) 630 40 40 81 91 220 580 793 1650 3360
2020-07-17 04:00 4.90 181 5240 (1951) 40 (1947) 630 40 40 81 91 220 580 793 1650 3360
2020-07-17 03:00 4.90 181 5240 (1951) 40 (1947) 630 40 40 81 91 220 580 793 1650 3360
2020-07-17 02:00 4.90 181 5240 (1951) 40 (1947) 630 40 40 81 91 220 580 793 1650 3360
2020-07-17 01:00 4.90 181 5240 (1951) 40 (1947) 630 40 40 81 91 220 580 793 1650 3360
2020-07-17 00:00 4.90 181 5240 (1951) 40 (1947) 630 40 40 81 91 220 580 793 1650 3360
2020-07-16 23:00 4.90 181 5900 (1951) 38 (1953) 637 40 40 87 112 220 571 799 1750 3410
2020-07-16 21:00 4.89 179 5900 (1951) 38 (1953) 637 40 40 87 112 220 571 799 1750 3410
2020-07-16 20:00 4.89 179 5900 (1951) 38 (1953) 637 40 40 87 112 220 571 799 1750 3410
2020-07-16 19:00 4.89 179 5900 (1951) 38 (1953) 637 40 40 87 112 220 571 799 1750 3410
2020-07-16 18:00 4.89 179 5900 (1951) 38 (1953) 637 40 40 87 112 220 571 799 1750 3410
2020-07-16 17:00 4.89 179 5900 (1951) 38 (1953) 637 40 40 87 112 220 571 799 1750 3410
2020-07-16 16:00 4.89 179 5900 (1951) 38 (1953) 637 40 40 87 112 220 571 799 1750 3410
2020-07-16 15:00 4.90 181 5900 (1951) 38 (1953) 637 40 40 87 112 220 571 799 1750 3410
2020-07-16 14:00 4.90 181 5900 (1951) 38 (1953) 637 40 40 87 112 220 571 799 1750 3410
2020-07-16 13:00 4.90 181 5900 (1951) 38 (1953) 637 40 40 87 112 220 571 799 1750 3410
2020-07-16 12:00 4.90 181 5900 (1951) 38 (1953) 637 40 40 87 112 220 571 799 1750 3410
2020-07-16 11:00 4.91 182 5900 (1951) 38 (1953) 637 40 40 87 112 220 571 799 1750 3410
2020-07-16 10:00 4.91 182 5900 (1951) 38 (1953) 637 40 40 87 112 220 571 799 1750 3410
2020-07-16 09:00 4.91 182 5900 (1951) 38 (1953) 637 40 40 87 112 220 571 799 1750 3410
2020-07-16 08:00 4.91 182 5900 (1951) 38 (1953) 637 40 40 87 112 220 571 799 1750 3410
2020-07-16 07:00 4.91 182 5900 (1951) 38 (1953) 637 40 40 87 112 220 571 799 1750 3410
2020-07-16 06:00 4.91 182 5900 (1951) 38 (1953) 637 40 40 87 112 220 571 799 1750 3410
2020-07-16 05:00 4.91 182 5900 (1951) 38 (1953) 637 40 40 87 112 220 571 799 1750 3410
2020-07-16 04:00 4.91 182 5900 (1951) 38 (1953) 637 40 40 87 112 220 571 799 1750 3410
2020-07-16 03:00 4.91 182 5900 (1951) 38 (1953) 637 40 40 87 112 220 571 799 1750 3410
2020-07-16 02:00 4.91 182 5900 (1951) 38 (1953) 637 40 40 87 112 220 571 799 1750 3410
2020-07-16 01:00 4.92 184 5900 (1951) 38 (1953) 637 40 40 87 112 220 571 799 1750 3410
2020-07-16 00:00 4.92 184 5900 (1951) 38 (1953) 637 40 40 87 112 220 571 799 1750 3410
2020-07-15 23:00 4.91 182 6390 (1951) 40 (1947) 633 40 40 83 150 216 450 643 2010 3450
2020-07-15 22:00 4.90 181 6390 (1951) 40 (1947) 633 40 40 83 150 216 450 643 2010 3450
2020-07-15 21:00 4.91 182 6390 (1951) 40 (1947) 633 40 40 83 150 216 450 643 2010 3450
2020-07-15 20:00 4.91 182 6390 (1951) 40 (1947) 633 40 40 83 150 216 450 643 2010 3450
2020-07-15 19:00 4.91 182 6390 (1951) 40 (1947) 633 40 40 83 150 216 450 643 2010 3450
2020-07-15 18:00 4.91 182 6390 (1951) 40 (1947) 633 40 40 83 150 216 450 643 2010 3450
2020-07-15 17:00 4.91 182 6390 (1951) 40 (1947) 633 40 40 83 150 216 450 643 2010 3450
2020-07-15 16:00 4.91 182 6390 (1951) 40 (1947) 633 40 40 83 150 216 450 643 2010 3450
2020-07-15 15:00 4.91 182 6390 (1951) 40 (1947) 633 40 40 83 150 216 450 643 2010 3450
2020-07-15 14:00 4.91 182 6390 (1951) 40 (1947) 633 40 40 83 150 216 450 643 2010 3450
2020-07-15 13:00 4.92 184 6390 (1951) 40 (1947) 633 40 40 83 150 216 450 643 2010 3450
2020-07-15 12:00 4.92 184 6390 (1951) 40 (1947) 633 40 40 83 150 216 450 643 2010 3450
2020-07-15 11:00 4.92 184 6390 (1951) 40 (1947) 633 40 40 83 150 216 450 643 2010 3450
2020-07-15 10:00 4.92 184 6390 (1951) 40 (1947) 633 40 40 83 150 216 450 643 2010 3450
2020-07-15 09:00 4.93 186 6390 (1951) 40 (1947) 633 40 40 83 150 216 450 643 2010 3450
2020-07-15 08:00 4.93 186 6390 (1951) 40 (1947) 633 40 40 83 150 216 450 643 2010 3450
2020-07-15 07:00 4.93 186 6390 (1951) 40 (1947) 633 40 40 83 150 216 450 643 2010 3450
2020-07-15 06:00 4.94 187 6390 (1951) 40 (1947) 633 40 40 83 150 216 450 643 2010 3450
2020-07-15 05:00 4.94 187 6390 (1951) 40 (1947) 633 40 40 83 150 216 450 643 2010 3450
2020-07-15 04:00 4.94 187 6390 (1951) 40 (1947) 633 40 40 83 150 216 450 643 2010 3450
2020-07-15 03:00 4.95 189 6390 (1951) 40 (1947) 633 40 40 83 150 216 450 643 2010 3450
2020-07-15 02:00 4.95 189 6390 (1951) 40 (1947) 633 40 40 83 150 216 450 643 2010 3450
2020-07-15 01:00 4.96 191 6390 (1951) 40 (1947) 633 40 40 83 150 216 450 643 2010 3450
2020-07-15 00:00 4.97 192 6390 (1951) 40 (1947) 633 40 40 83 150 216 450 643 2010 3450
2020-07-14 23:00 4.97 192 5450 (1951) 40 (1956) 622 40 40 91 108 220 538 711 1890 3480
2020-07-14 22:00 4.98 194 5450 (1951) 40 (1956) 622 40 40 91 108 220 538 711 1890 3480
2020-07-14 21:00 4.99 196 5450 (1951) 40 (1956) 622 40 40 91 108 220 538 711 1890 3480
2020-07-14 20:00 5.00 197 5450 (1951) 40 (1956) 622 40 40 91 108 220 538 711 1890 3480
2020-07-14 19:00 5.02 201 5450 (1951) 40 (1956) 622 40 40 91 108 220 538 711 1890 3480
2020-07-14 18:00 5.04 204 5450 (1951) 40 (1956) 622 40 40 91 108 220 538 711 1890 3480
2020-07-14 17:00 5.06 207 5450 (1951) 40 (1956) 622 40 40 91 108 220 538 711 1890 3480
2020-07-14 16:00 5.10 214 5450 (1951) 40 (1956) 622 40 40 91 108 220 538 711 1890 3480
2020-07-14 15:00 5.14 220 5450 (1951) 40 (1956) 622 40 40 91 108 220 538 711 1890 3480
2020-07-14 14:00 5.18 226 5450 (1951) 40 (1956) 622 40 40 91 108 220 538 711 1890 3480
2020-07-14 13:00 5.23 234 5450 (1951) 40 (1956) 622 40 40 91 108 220 538 711 1890 3480
2020-07-14 12:00 5.30 245 5450 (1951) 40 (1956) 622 40 40 91 108 220 538 711 1890 3480
2020-07-14 11:00 5.38 257 5450 (1951) 40 (1956) 622 40 40 91 108 220 538 711 1890 3480
2020-07-14 10:00 5.50 276 5450 (1951) 40 (1956) 622 40 40 91 108 220 538 711 1890 3480
2020-07-14 09:00 5.69 307 5450 (1951) 40 (1956) 622 40 40 91 108 220 538 711 1890 3480
2020-07-14 08:00 5.70 309 5450 (1951) 40 (1956) 622 40 40 91 108 220 538 711 1890 3480
2020-07-14 07:00 5.70 309 5450 (1951) 40 (1956) 622 40 40 91 108 220 538 711 1890 3480
2020-07-14 06:00 5.71 310 5450 (1951) 40 (1956) 622 40 40 91 108 220 538 711 1890 3480
2020-07-14 05:00 5.71 310 5450 (1951) 40 (1956) 622 40 40 91 108 220 538 711 1890 3480
2020-07-14 04:00 5.72 312 5450 (1951) 40 (1956) 622 40 40 91 108 220 538 711 1890 3480
2020-07-14 03:00 5.73 314 5450 (1951) 40 (1956) 622 40 40 91 108 220 538 711 1890 3480
2020-07-14 02:00 5.73 314 5450 (1951) 40 (1956) 622 40 40 91 108 220 538 711 1890 3480
2020-07-14 01:00 5.75 317 5450 (1951) 40 (1956) 622 40 40 91 108 220 538 711 1890 3480
2020-07-14 00:00 5.76 319 5450 (1951) 40 (1956) 622 40 40 91 108 220 538 711 1890 3480

A total of 745 rows are displayed for years 1942 through 2019.